Find Kosmos-2209

NORAD ID: 22112 Int'l Des: 1992-059 Owner: PVO Country: RU operational
HEOCIRCULARGSO

当前视图

正在加载3D地球...

关于 Kosmos-2209

正在加载描述...

即将过境

Passes for default location (London). Set your location on the main map for personalized predictions.

高度历史

Loading altitude history...

两行轨道根数

1 22112U 92059A 26149.42446250 -.00000298 00000-0 00000+0 0 9991
2 22112 13.5977 342.7792 0011464 342.5096 28.0584 1.00212063123436
Epoch: May 29, 2026 • Age: 20 hours

当前状态

高度 35767.0 km
速度 3.08 km/s
星下点 -11.11°S, 45.9°W
发射日期 Sep 10, 1992
运行时间 33.7 years
类型 other

技术详情

分类 Payload
质量 1250.00 kg
干质量 1150.00 kg
总质量 1250.00 kg
长度 4.00 m
直径 2.00 m
跨度 5.00 m
形状 Cyl + 2 Pan
制造商 NPOL/KOMET
平台类型 Oko
阶段状态 In Orbit
所有者/国家 PVO/RU

Most Searched